Reflectivity
-20 -20 -20 -20 -20 6 13 -20 -20 -20 -20 -20 -20 -20 -20 -20 -20 -20 -20 -20 -20 -20 -20 -20 -20 -20 -20 -20 -20 3 -1 -5 10 7 15 11 11 1 6 17 33 34 32 28
-20 -20 -20 -20 7 10 12 -20 -20 -20 -20 -20 -20 -20 -20 -20 -20 -20 -20 -20 -20 -20 -20 -20 -20 -20 -20 -20 -19 11 -1 -10 5 7 6 11 15 17 13 18 24 -4 4 18
-20 -20 -20 -18 10 4 -2 -14 -20 -7 -1 -20 -20 -20 -20 -20 -20 -20 -20 -20 -20 -20 -20 -20 -20 -20 -20 -20 -20 -6 -2 3 11 5 15 24 17 16 18 20 15 -8 9 8
-20 -20 -20 -20 -20 -19 9 5 -1 7 -19 -20 -20 -20 -20 -20 -20 -20 -20 -20 -20 -20 -20 -20 -20 -20 -20 -20 -20 5 -5 2 8 9 7 9 -6 -3 -10 23 12 25 7 -13
-19 -20 -20 -20 -20 7 -19 17 8 -1 -20 -20 -20 -20 -20 -20 -20 -20 -20 -20 -20 -20 -20 -20 -20 -20 -20 -20 -20 5 2 -3 4 14 -14 14 9 17 4 19 -12 -3 12 16
-20 -20 -20 -20 -14 -4 6 10 -18 -20 -20 -20 -20 -20 -20 -20 -20 -20 -20 -20 -20 -20 -20 -20 -20 -20 -20 -20 -20 4 2 -1 -0 2 -11 16 23 18 -1 6 -7 -20 -20 -6
-6 -20 -20 -6 3 -16 -0 3 7 -13 -20 -20 -20 -20 -20 -20 -20 -20 -20 -20 -20 -20 -20 -20 -20 -20 -20 -20 -20 2 -6 -2 -9 -0 7 -1 24 22 2 -18 -19 -1 -15 10
-19 -19 -20 -20 -20 -5 4 10 9 -18 3 1 3 -20 -20 -20 -20 -20 -20 -20 -20 -20 -20 -20 -20 -20 -20 -20 -20 -20 -15 2 8 -1 5 6 0 -20 -20 -8 -14 4 14 3
-20 -15 -20 -20 -19 -16 -20 -20 -6 -1 1 12 9 -1 -20 -20 -20 -20 -20 -20 -20 -20 -20 -20 -20 -20 -20 -20 -20 -20 -20 -3 -1 7 -3 -2 -9 13 -8 -20 -20 -20 8 5
-20 -20 -20 -20 -20 -20 -20 -13 -20 -5 -20 -20 -20 -20 -20 -7 -20 -20 -20 -20 -20 -20 -20 -20 -20 -20 -20 -20 -20 -20 -20 -20 -8 -4 4 3 11 8 -1 -20 -20 -20 -20 -18
-20 -20 -20 -20 -20 -8 -2 -7 -20 -20 -20 -20 -20 -20 12 12 -20 -20 -20 -20 -20 -20 -20 -20 -20 -20 -20 -20 -20 -20 -20 -20 -20 -8 -13 -8 -20 10 12 5 -20 -20 -20 -20
-18 11 -20 -20 -20 -20 -20 -20 -20 -20 -20 -5 -20 -20 -20 -20 -20 -20 -20 -20 -20 -20 -20 -20 -20 -20 -20 -20 -20 -20 -20 -20 -20 -20 -14 -8 -20 -19 -19 7 -4 -20 -20 -20
-20 17 2 -15 -20 -9 -20 -20 -20 -20 -20 -20 -7 -20 -16 -20 -20 -20 -20 -20 -20 -20 -20 -20 -20 -20 -20 -20 -20 -20 -20 -20 -20 -20 -20 -20 -1 -10 -14 -20 -20 -4 -19 -20
-20 -20 -20 -17 9 -13 -20 -20 -20 -20 -20 -20 -20 -20 -6 15 -4 -19 -20 -20 -20 -20 -20 -20 -20 -20 -20 -20 -20 -20 -20 -20 -20 -20 -20 -20 -20 -20 -20 -13 2 1 -3 1
-20 -20 -20 -20 -20 -20 -20 -20 -20 -20 -20 -19 -20 -20 -20 -20 -19 -8 -20 -8 -20 -20 -20 -20 -20 -20 -20 -20 -20 -20 -20 -20 -20 -20 -20 -20 -20 -20 -20 -16 2 -3 -20 3
2 2 -15 -20 -20 -20 -20 -20 -20 -20 -20 -20 -11 -20 -20 -20 -20 -20 -20 -20 -20 -19 -20 -20 -20 -20 -20 -20 -20 -20 -20 -20 -20 -20 -20 -20 -20 -20 -20 -20 -20 -20 -20 -20
9 -4 5 2 -20 7 -14 -20 -18 -20 -20 -20 -20 -20 -20 -20 -19 -20 -20 -20 -20 -20 -20 -20 -20 -20 -20 -20 -20 -20 -20 -20 -20 -20 -20 -20 -20 -20 -20 -20 -20 -20 -20 -20
-8 -3 7 12 -20 -20 -20 -20 -20 -20 -20 -20 -20 -20 -20 -17 -4 11 -20 -20 -20 -20 -20 -18 11 -17 -20 -20 -20 -20 -20 -20 -20 -20 -20 -20 -20 -20 -20 -20 -20 -20 -20 -20
-20 7 19 14 4 -20 -20 -20 -20 -20 -20 -12 -20 -20 -20 -20 -19 -17 -20 -20 -20 -20 -20 -20 -20 -18 -2 -13 6 -20 -20 -20 -20 -20 -20 -20 -20 -20 -20 -20 -20 -20 -20 -20
-20 5 14 12 6 5 14 -20 -20 -16 15 4 4 9 9 -17 -16 24 18 -20 -20 -20 -20 -20 -20 -20 -20 -20 5 10 -20 -16 -20 -20 -18 -20 -20 -20 -20 -20 -20 -20 -20 -20
-5 10 10 9 7 -11 29 -19 -20 -17 12 -3 5 3 13 -12 -10 15 -19 -20 -20 -20 -20 -20 -20 -20 -20 -20 -9 -1 4 -1 9 -10 13 -20 -20 -20 -20 -20 -20 -20 -20 -20
1 10 15 12 9 9 -12 -20 18 12 27 36 40 19 6 9 6 -20 -20 -20 -20 -20 -20 -20 -20 -20 -20 -20 -20 13 24 -8 0 17 3 0 16 8 -20 -20 -20 -20 1 18
1 1 15 -16 -4 31 -17 -4 -20 4 13 12 33 28 28 37 15 -19 -20 -20 -20 -20 -20 -20 -20 -20 -20 -20 -20 -14 12 17 10 6 10 5 -4 -2 -20 -19 21 26 18 14
-18 -20 30 27 0 1 -14 15 -18 -13 -1 2 1 -20 -0 -6 -20 -20 -20 -20 -20 -20 -6 -20 -20 -20 -13 -20 -10 -6 -20 -8 -18 -15 3 6 15 19 20 25 22 16 23 18
-11 15 -17 -19 9 25 22 11 10 -18 -17 3 -13 -20 -20 -20 -8 -20 -20 -20 -20 -20 -20 -20 -20 -14 3 -0 12 9 20 15 13 10 13 4 24 17 14 18 9 15 28 19
-2 7 7 22 -20 -20 -11 -10 -18 -20 -20 -20 -20 -20 -20 -20 -20 -20 -20 -20 -20 -20 -20 -20 -3 21 25 30 21 14 19 25 26 22 23 21 18 22 15 12 9 17 20 14
Wind_Speed
19 18 24 24 23 24 21 24 23 18 12 5 11 18 17 16 16 15 15 15 13 14 13 13 13 11 10 10 12 12 12 8 6 7 7 9 9 9 8 10 13 11 12 14
13 24 27 23 22 19 24 26 24 20 23 11 14 20 20 20 19 18 18 16 13 14 13 15 16 13 11 13 12 12 13 13 9 7 7 7 9 9 9 9 13 14 14 12
21 10 25 20 20 21 25 24 21 24 22 16 14 22 23 23 24 21 20 14 13 15 16 17 17 16 13 13 14 14 14 14 11 10 9 8 8 6 7 8 9 10 12 12
20 20 13 18 24 24 23 21 22 20 20 15 17 14 17 15 11 18 15 14 16 14 16 18 18 18 17 15 13 15 15 13 13 14 11 17 13 12 9 10 10 8 9 8
17 17 20 22 21 16 21 16 17 22 21 17 20 16 16 17 19 15 15 18 16 14 16 19 19 19 18 15 14 15 15 15 16 16 12 12 13 9 7 8 12 11 9 8
22 7 9 18 14 15 17 16 16 14 13 17 18 17 13 14 16 13 12 12 16 14 15 18 18 18 17 16 16 14 17 15 15 14 14 15 16 14 11 11 9 9 8 7
19 22 16 12 12 17 18 14 9 12 12 13 17 14 13 11 5 4 8 7 9 11 14 17 20 19 19 19 17 15 18 17 16 17 18 16 17 17 17 15 11 12 9 7
14 11 29 21 19 11 18 17 9 12 10 10 20 9 10 13 13 15 12 8 3 7 12 18 20 19 19 20 20 18 20 19 20 17 17 18 16 13 12 13 12 11 11 13
5 12 2 12 25 21 17 18 19 22 17 9 9 8 9 11 10 7 6 9 11 14 14 17 19 20 20 20 21 22 20 19 19 20 16 17 16 19 17 16 15 11 14 13
5 9 6 14 12 22 25 15 13 13 16 17 13 17 15 5 9 11 9 6 8 12 14 16 19 20 18 19 19 20 21 21 20 19 17 16 18 17 17 17 19 19 16 19
4 7 2 5 10 13 15 20 16 12 13 11 10 7 10 4 8 5 5 6 6 8 11 17 17 19 18 18 19 19 20 21 22 20 17 17 16 18 18 17 18 18 19 19
5 7 8 11 3 9 13 16 18 13 16 12 15 15 9 2 5 7 6 6 4 3 8 14 16 19 19 19 19 20 19 21 19 21 21 19 17 18 18 18 18 20 19 19
10 3 7 12 11 11 10 11 12 15 16 19 14 9 4 13 8 7 7 3 6 5 4 9 13 17 19 19 19 20 20 20 20 19 19 20 20 20 20 20 18 18 18 18
6 9 11 11 10 11 6 10 9 13 13 14 17 20 20 9 10 5 8 5 6 5 5 7 12 15 17 18 19 20 20 20 19 21 21 19 19 20 19 18 17 17 17 17
7 12 13 15 19 16 17 14 14 18 17 19 16 20 17 18 17 21 15 5 7 9 4 5 9 13 16 17 17 17 18 19 19 20 20 19 18 18 18 17 17 17 16 16
3 7 9 14 15 20 22 20 21 19 19 23 22 25 20 14 13 14 16 16 11 10 8 4 5 10 13 16 17 16 16 18 19 19 18 18 18 18 17 17 17 17 17 17
7 5 3 12 15 11 14 20 21 17 18 20 22 20 21 18 13 14 12 13 15 8 9 9 6 6 9 14 14 17 18 16 18 19 19 19 19 19 17 18 18 17 16 15
9 11 6 6 9 11 10 6 3 7 13 21 26 25 21 19 12 14 14 7 7 9 10 10 5 5 6 8 13 14 15 17 18 19 19 19 19 19 19 18 17 16 14 15
19 14 4 5 9 15 21 9 3 5 15 21 23 21 18 19 18 16 10 5 3 6 8 8 9 11 8 5 10 14 15 16 17 19 19 18 16 17 17 17 16 14 9 9
20 17 11 8 10 7 6 6 6 6 8 17 23 18 3 5 8 2 10 7 6 7 8 9 8 10 10 6 4 11 13 14 14 13 15 15 15 14 13 10 12 10 11 12
15 13 13 12 11 10 3 9 8 4 8 23 23 16 20 6 7 2 4 6 6 7 10 10 9 8 9 8 2 7 10 14 12 10 10 7 7 6 12 11 11 11 13 13
9 10 8 12 10 14 10 2 3 2 6 5 9 14 18 24 6 7 8 8 6 8 10 10 8 10 11 9 2 3 8 11 9 16 14 13 11 10 9 13 10 11 12 13
8 10 3 4 5 5 8 13 10 11 10 12 13 10 11 17 10 7 6 7 8 10 9 8 8 10 13 13 12 12 9 10 11 14 13 13 12 11 10 11 11 9 9 10
5 12 5 4 5 6 9 10 12 12 13 15 16 16 13 15 12 9 8 7 10 9 9 7 8 12 11 11 12 10 10 11 15 15 14 14 13 13 13 8 10 9 7 8
4 3 8 7 14 12 9 11 12 14 14 16 17 17 16 16 14 11 10 9 9 10 10 10 7 12 12 12 10 10 8 12 15 15 13 15 12 13 15 14 12 10 12 10
8 9 5 5 8 8 10 12 15 15 15 14 15 15 14 15 13 13 13 11 12 12 11 11 13 12 11 11 14 11 10 10 14 14 11 10 11 11 12 14 18 30 25 28
Wind_Direction
199 217 225 230 222 246 249 257 263 274 265 294 261 274 270 270 242 249 224 237 225 217 196 185 169 190 182 162 152 161 153 159 142 139 139 130 132 135 134 136 143 166 173 183
203 232 238 232 241 235 248 259 260 264 274 234 261 269 271 265 258 250 247 241 220 203 195 184 171 187 196 173 176 167 161 166 156 139 145 135 139 136 139 157 174 180 172 172
229 233 231 235 221 240 243 247 251 257 270 274 254 264 260 257 250 252 252 238 246 200 193 188 177 189 193 192 182 173 170 171 151 137 137 146 138 138 156 157 162 160 166 162
243 251 247 226 231 219 244 241 249 264 269 266 259 276 277 273 255 224 233 228 239 216 188 187 185 191 186 188 188 173 174 173 166 153 160 163 166 171 176 172 163 164 159 171
229 229 233 235 229 231 251 251 247 257 256 266 254 251 263 257 253 238 234 210 215 217 190 187 186 189 190 175 181 173 175 174 175 166 161 162 176 177 175 175 163 179 186 183
250 213 259 242 228 233 239 247 244 257 250 248 247 252 256 256 235 219 238 222 205 205 190 188 180 183 184 171 175 172 177 176 174 172 164 172 174 179 175 188 178 186 184 196
238 249 235 231 220 222 229 227 230 217 225 246 251 230 231 257 0 242 159 204 203 199 192 191 177 182 181 173 176 174 179 177 177 175 178 176 179 184 179 184 188 185 186 198
201 225 223 212 224 193 203 205 230 218 238 259 229 219 238 243 252 238 232 248 197 187 195 191 183 181 186 175 177 183 186 182 180 180 186 187 180 192 187 185 184 191 192 197
284 238 48 217 219 242 197 213 236 268 275 271 270 246 215 240 244 237 209 216 227 216 194 199 189 182 186 179 182 179 191 187 185 186 185 190 189 195 196 189 191 197 200 205
286 275 224 192 223 214 238 239 227 235 256 262 249 242 249 150 205 209 199 246 278 226 199 194 194 182 184 182 180 180 187 194 185 190 188 194 197 195 194 197 201 191 202 208
304 256 240 173 208 217 204 229 239 251 228 258 278 272 19 139 193 267 37 1 309 263 218 186 196 181 182 181 181 184 189 190 187 188 187 194 197 197 198 198 198 204 203 210
26 306 260 252 274 234 238 217 229 235 243 246 239 259 312 339 235 116 316 103 47 305 221 189 192 181 183 185 186 183 193 191 198 184 188 196 194 197 203 204 198 198 205 206
349 225 269 231 237 249 243 240 245 239 250 261 270 243 289 227 207 242 286 30 97 50 165 188 191 189 189 188 190 187 191 197 196 192 191 190 194 199 201 206 203 201 203 207
306 267 270 287 328 326 268 243 267 275 249 253 251 264 274 281 276 248 265 268 340 41 114 199 194 203 198 196 193 192 192 199 195 195 195 197 198 200 201 203 206 207 206 211
247 263 267 270 284 279 276 271 263 258 264 264 270 257 254 258 261 264 273 261 278 299 307 182 213 202 205 203 199 197 195 196 196 199 199 199 197 200 204 204 202 202 207 212
318 267 277 271 276 275 269 262 262 266 268 268 266 271 268 267 275 286 255 272 283 268 279 335 203 213 206 211 206 203 198 193 197 200 203 202 198 205 203 199 201 202 202 210
268 264 255 257 257 304 263 247 258 286 298 291 267 254 270 273 240 247 270 266 266 303 314 307 285 246 226 210 210 214 207 194 196 204 203 202 199 204 205 203 203 203 200 205
240 239 237 279 292 260 243 122 221 286 294 298 266 263 248 264 262 247 250 267 326 317 303 302 283 281 242 230 213 213 210 209 201 203 205 203 201 202 202 203 204 200 194 196
217 231 244 244 243 277 290 230 288 281 308 297 328 243 231 246 256 261 258 78 323 316 326 343 318 311 282 228 238 205 209 210 207 208 206 204 201 202 202 200 197 197 143 103
212 214 223 226 248 264 39 100 177 265 248 14 331 355 57 284 229 34 43 43 17 4 353 345 338 314 297 247 215 229 211 209 210 209 209 205 198 201 201 188 116 108 107 101
190 194 220 231 245 273 320 21 148 265 342 338 319 341 334 27 41 62 347 310 9 13 8 352 0 351 347 321 208 237 218 219 207 188 209 196 174 145 96 97 103 104 103 104
191 192 202 237 244 249 357 65 22 326 272 290 326 339 328 323 322 20 41 33 23 0 3 23 23 19 1 345 303 213 73 53 63 85 79 69 62 76 93 106 103 107 114 112
169 204 244 243 229 18 30 60 29 4 347 337 327 293 253 275 335 320 47 35 39 29 17 22 41 33 21 15 51 73 67 85 82 79 85 81 79 80 86 98 100 96 99 107
283 146 157 233 330 339 353 32 12 355 350 346 332 324 341 327 328 333 65 40 52 33 25 27 54 59 35 37 50 73 90 93 90 85 77 83 77 75 71 68 85 88 79 92
322 276 242 235 136 228 118 26 22 346 359 359 347 353 3 350 27 43 54 49 51 47 27 23 30 68 40 45 50 55 71 96 92 91 94 86 82 81 79 66 62 60 67 80
9 4 337 34 36 343 2 7 17 353 353 6 356 359 11 9 29 52 52 40 40 42 41 48 34 43 51 46 39 45 60 78 93 85 77 85 93 93 90 88 84 69 72 76